Regional Weather Roundup
Issued by NWS Sioux Falls, SD

Home | Current Version | Previous Version | Text Only | Print | Product List | Glossary On
Versions: 1 2 3 4 5 6 7 8 9 10 11 12 13 14 15 16 17 18 19 20 21 22 23 24 25 26 27 28 29 30 31 32 33 34 35 36 37 38 39 40 41 42 43 44 45 46 47 48 49 50
000
ASUS43 KFSD 210602
RWRFSD

WEATHER ROUNDUP FOR SE SOUTH DAKOTA/SW MINNESOTA/NW IOWA
NATIONAL WEATHER SERVICE SIOUX FALLS SD
100 AM CDT MON APR 21 2014

NOTE: "FAIR" INDICATES FEW OR NO CLOUDS BELOW 12,000 FEET WITH NO
SIGNIFICANT WEATHER AND OR OBSTRUCTIONS TO VISIBILITY.


SDZ038>040-050-052>070-210700-
SOUTHEAST SOUTH DAKOTA

CITY           SKY/WX    TMP DP  RH WIND       PRES   REMARKS
CHAMBERLAIN      N/A     59  35  40 N15G25    29.99R
6HR MIN TEMP:  59; 6HR MAX TEMP:  80; 6HR PCP:  0.18;

HURON          MOCLDY    54  44  69 N9        29.92R
6HR MIN TEMP:  54; 6HR MAX TEMP:  80; 6HR PCP:  0.01;

MADISON        FAIR      55  48  76 NW10      29.91R THUNDER
MITCHELL       CLOUDY    63  46  54 NW6       29.90S
6HR MIN TEMP:  61; 6HR MAX TEMP:  80; 6HR PCP: TRACE;

SIOUX FALLS    FAIR      64  51  62 SW9       29.88R
6HR MIN TEMP:  56; 6HR MAX TEMP:  76;

WINNER         FAIR      58  33  39 N16       30.01R
YANKTON        FAIR      64  54  68 SW10      29.90R
$$

MNZ071-072-080-081-089-090-097-098-210700-
SOUTHWEST MINNESOTA

CITY           SKY/WX    TMP DP  RH WIND       PRES   REMARKS
FAIRMONT       CLOUDY    59  54  82 E3        29.95R
JACKSON        CLOUDY    61  52  72 E5        29.93S
LUVERNE        FAIR      59  50  72 SE5       29.90S
MARSHALL       FAIR      61  52  72 SE10      29.89S
6HR MIN TEMP:  59; 6HR MAX TEMP:  73;

MONTEVIDEO     FAIR      55  43  62 SE7       29.91F
PIPESTONE      FAIR      57  50  77 SE6       29.89S
REDWOOD FALLS  FAIR      60  53  77 SE10      29.90F
TRACY          FAIR      60  55  84 SE9       29.89F
WINDOM         FAIR      59  55  88 E7        29.92F
WORTHINGTON    FAIR      64  48  55 S15       29.93S
$$

IAZ001>003-012>014-020>022-031-032-NEZ013-014-SDZ071-210700-
NORTHWEST IOWA

CITY           SKY/WX    TMP DP  RH WIND       PRES   REMARKS
DENISON        CLOUDY    61  55  82 S5        29.94F
ESTHERVILLE    CLOUDY    59  57  93 S12       29.92S
SIOUX CITY     MOCLDY    64  55  72 S12       29.92F
6HR MIN TEMP:  64; 6HR MAX TEMP:  71; 6HR PCP:  0.01;

SPENCER        CLOUDY    61  55  81 S10       29.92F
6HR MIN TEMP:  61; 6HR MAX TEMP:  73; 6HR PCP:  0.16;

STORM LAKE     CLOUDY    61  55  82 SW13      29.95F
$$

ABBREVIATIONS USED IN REMARKS
   TC - TEMPERATURE IN CELSIUS
  WCI - WIND CHILL INDEX
   HX - HEAT INDEX
  VSB - VISIBILITY




USA.gov is the U.S. government's official web portal to all federal, state and local government web resources and services.